Location: Maiden
(35.5760°N, 81.2120°W)
Time: 19:40:39

ISS - Visible Passes

Search period start: 21 October 2016 00:00
Search period end: 31 October 2016 00:00
Orbit: 399 x 409 km, 51.6° (Epoch: 22 October)

Date Brightness Start Highest point End Pass type
(mag) Time Alt. Az. Time Alt. Az. Time Alt. Az.
21 Oct -0.1 20:02:21 10° WSW 20:03:36 12° SW 20:04:48 10° SSW visible
22 Oct -0.8 19:08:43 10° WNW 19:11:24 24° SW 19:14:05 10° S visible
30 Oct -1.2 07:15:37 10° SSW 07:18:30 30° SE 07:21:25 10° ENE visible
